Torna al catalogo

COSMOS 2384

AttivoNavigazionePO
NORAD 27055·PAYLOAD·🇷🇺 Russia

Lanciato Dec 28, 2001 da Plesetsk Cosmodrome

Loading…

Prossimi Passaggi (prossime 24 ore)

TLE

AggiornatoSource: Space-Track

Epoca: Sep 14, 2026, 14:24 UTC

1 27055U 01058A   26257.60010708  .00000029  00000-0  10540-3 0  9991
2 27055  82.5498 176.5537 0011328  55.6507 304.5653 12.59892969136314

Traccia COSMOS 2384 in tempo reale con AllMySat

Download on the App Store